Location: G�ndlingen
(48.0142°N, 7.6396°E)
Time: 18:09:28
(UTC+00:00)

Meteor 1-26 Rocket - Pass Details

Date: 05 July 2020
Orbit: 811 x 924 km, 81.3° (Epoch: 12 August)

Event Time Altitude Azimuth Distance (km) Brightness Sun altitude
Rises 23:24:05 0° 347° (NNW) 3,583 9.0 -19.3°
Reaches altitude 10° 23:26:35 10° 346° (NNW) 2,632 7.9 -19.3°
Maximum altitude 23:32:37 79° 261° (W) 934 4.3 -19.3°
Enters shadow 23:35:18 35° 180° (S) 1,437 4.8 -19.3°
